CATSAT-1 (44033 NORAD) Tracking and Keplerian Element Data

This shows tracking and keplerian element data for the satellite.

Feedback or suggestion? Click here.




ElementValue
Catalog44033
NameCATSAT-1
Epoch Orbit2666
Epoch Day202.93002745
Epoch Year2019
RAAN184.8095
Inclination51.6387
Eccentricity0.0004191
Argument of Perigee276.8634
Mean Anonmoly83.1881
Mean Motion15.56836363
Decay Rate4.49E-05
L11 44033U 98067PZ 19202.93002745 .00004490 00000-0 68134-4 0 9991
L22 44033 51.6387 184.8095 0004191 276.8634 83.1881 15.56836363 26667

Live tracking and technical data element details for CATSAT-1 (NORAD 44033). CATSAT-1 can be tracked NOW for your location showing map with azimuth and elevation plus other details from your city location.

Track the satellite on the map from your city or location and see movement details for azimuth, elevation, latitude, longitude, range, height, and movement on the map or in text.







IsCatalogInMostPopularTable: catalog: 44033, numindb: 83
Update: records affected: 1



GetName: 44033 CATSAT-1

Hit Count: updated at: Mon, 22 Jul 2019 15:56:47 GMT